SCP
0 0 0 0 0 0 0 0 0 0 0 0 0 0 0 0 0 0 0 0 0 0
0 0 0 0 0 0 0 0 0 0 0 0 0 0 0 0 0 0 0 0 0 0
0 0 0 0 0 0 0 0 0 0 0 0 0 0 0 0 0 0 0 0 0 0
0 0 0 0 0 0 0 0 0 0 0 0 0 0 0 0 0 0 0 0 0 0
0 0 0 0 0 0 0 0 0 0 0 0 0 0 0 0 0 0 0 0 0 0
0 0 0 0 0 0 0 0 0 0 -0 -0 0 0 0 0 0 0 0 0 0 0
0 0 0 0 0 0 0 0 0 0 0 0 0 0 0 0 0 0 0 0 0 -0
0 0 0 0 0 0 0 0 0 0 0 0 0 0 0 0 0 0 0 0 0 0
0 0 0 0 0 0 0 0 0 0 -0 -0 0 0 0 0 0 0 0 0 0 0
0 0 0 0 0 0 0 -0 -0 0 -0 -0 0 0 -0 -0 0 0 0 0 0 0
0 0 0 0 0 0 0 0 0 -0 -0 -0 0 0 0 -0 0 0 0 0 0 0
0 0 0 0 0 0 0 0 0 0 -0 -0 0 0 0 0 0 0 0 0 0 0
0 0 0 0 0 0 0 0 0 0 0 -0 0 0 0 0 0 -0 -0 0 0 0
0 0 0 0 0 0 0 0 0 0 0 0 0 -0 -0 0 0 -0 0 -0 -0 -0
Wind_Speed_500mb
36 36 38 37 31 30 31 26 25 27 27 24 25 26 29 25 20 24 29 29 28 27
43 44 36 34 32 31 31 27 26 29 27 26 25 28 26 25 25 27 28 26 24 22
47 38 32 32 31 31 32 30 29 31 29 29 29 29 28 27 24 29 30 31 26 19
44 37 31 31 33 33 33 34 32 33 32 32 31 30 26 22 27 29 28 33 26 22
37 35 34 34 32 32 33 33 33 31 30 32 36 35 32 35 34 31 29 21 17 18
35 33 35 35 32 33 32 29 28 30 33 37 39 38 37 33 25 26 27 25 19 13
38 34 34 34 31 31 33 31 26 34 35 36 40 41 32 27 28 25 29 33 34 28
31 26 29 30 31 33 35 31 29 33 37 44 51 39 34 28 30 30 32 36 37 30
29 26 28 30 31 34 40 33 30 32 39 50 50 32 32 29 36 37 35 37 34 31
32 29 28 30 30 35 37 38 33 33 40 48 53 36 33 29 34 35 34 36 33 31
32 29 27 26 29 33 36 36 36 32 36 43 53 46 30 25 30 36 36 40 45 46
33 29 27 28 30 31 33 34 37 30 34 44 53 49 35 30 31 32 35 34 34 39
28 29 23 25 27 32 32 35 39 31 33 37 49 49 42 32 32 36 38 43 47 53
26 26 25 23 24 27 29 28 33 35 31 32 43 48 46 38 35 37 45 54 65 61
Wind_Direction_500mb
343 338 334 332 339 343 342 342 350 350 346 357 5 3 356 355 334 314 310 307 299 292
354 349 355 1 4 6 10 9 0 0 2 355 344 334 330 326 325 320 311 304 299 295
357 0 6 10 14 14 12 4 3 359 353 348 344 339 335 331 328 320 306 295 296 275
6 9 10 14 14 12 7 8 7 4 4 1 355 343 341 327 326 315 309 313 285 261
9 20 18 14 13 9 8 9 10 13 15 7 359 345 330 331 330 333 342 349 314 246
11 10 11 10 9 10 12 12 18 14 10 360 356 360 6 7 19 13 1 354 330 274
16 17 15 12 10 9 12 10 13 8 5 10 12 9 19 26 19 20 34 40 48 98
11 13 13 17 17 13 12 20 20 19 28 19 18 33 32 30 41 48 63 58 65 72
17 19 20 19 22 23 28 29 25 22 27 27 29 42 38 45 59 60 61 58 66 74
16 16 18 21 24 23 25 27 28 31 29 33 32 39 41 55 66 63 64 68 66 72
17 16 16 19 17 17 22 25 28 34 33 35 33 36 46 56 67 66 66 80 78 73
14 10 13 19 22 20 22 24 26 41 36 41 34 38 51 56 64 70 78 84 81 75
7 2 6 18 23 21 23 29 27 48 51 46 39 45 52 56 63 76 82 85 83 77
10 9 20 22 18 17 20 26 39 47 57 51 49 49 52 61 71 75 89 93 96 91
Wind_Speed_850mb
36 36 38 37 31 30 31 26 25 27 27 24 25 26 29 25 20 24 29 29 28 27
43 44 36 34 32 31 31 27 26 29 27 26 25 28 26 25 25 27 28 26 24 22
47 38 32 32 31 31 32 30 29 31 29 29 29 29 28 27 24 29 30 31 26 19
44 37 31 31 33 33 33 34 32 33 32 32 31 30 26 22 27 29 28 33 26 22
37 35 34 34 32 32 33 33 33 31 30 32 36 35 32 35 34 31 29 21 17 18
35 33 35 35 32 33 32 29 28 30 33 37 39 38 37 33 25 26 27 25 19 13
38 34 34 34 31 31 33 31 26 34 35 36 40 41 32 27 28 25 29 33 34 28
31 26 29 30 31 33 35 31 29 33 37 44 51 39 34 28 30 30 32 36 37 30
29 26 28 30 31 34 40 33 30 32 39 50 50 32 32 29 36 37 35 37 34 31
32 29 28 30 30 35 37 38 33 33 40 48 53 36 33 29 34 35 34 36 33 31
32 29 27 26 29 33 36 36 36 32 36 43 53 46 30 25 30 36 36 40 45 46
33 29 27 28 30 31 33 34 37 30 34 44 53 49 35 30 31 32 35 34 34 39
28 29 23 25 27 32 32 35 39 31 33 37 49 49 42 32 32 36 38 43 47 53
26 26 25 23 24 27 29 28 33 35 31 32 43 48 46 38 35 37 45 54 65 61
Wind_Direction_850mb
343 338 334 332 339 343 342 342 350 350 346 357 5 3 356 355 334 314 310 307 299 292
354 349 355 1 4 6 10 9 0 0 2 355 344 334 330 326 325 320 311 304 299 295
357 0 6 10 14 14 12 4 3 359 353 348 344 339 335 331 328 320 306 295 296 275
6 9 10 14 14 12 7 8 7 4 4 1 355 343 341 327 326 315 309 313 285 261
9 20 18 14 13 9 8 9 10 13 15 7 359 345 330 331 330 333 342 349 314 246
11 10 11 10 9 10 12 12 18 14 10 360 356 360 6 7 19 13 1 354 330 274
16 17 15 12 10 9 12 10 13 8 5 10 12 9 19 26 19 20 34 40 48 98
11 13 13 17 17 13 12 20 20 19 28 19 18 33 32 30 41 48 63 58 65 72
17 19 20 19 22 23 28 29 25 22 27 27 29 42 38 45 59 60 61 58 66 74
16 16 18 21 24 23 25 27 28 31 29 33 32 39 41 55 66 63 64 68 66 72
17 16 16 19 17 17 22 25 28 34 33 35 33 36 46 56 67 66 66 80 78 73
14 10 13 19 22 20 22 24 26 41 36 41 34 38 51 56 64 70 78 84 81 75
7 2 6 18 23 21 23 29 27 48 51 46 39 45 52 56 63 76 82 85 83 77
10 9 20 22 18 17 20 26 39 47 57 51 49 49 52 61 71 75 89 93 96 91